TimeCDT,TemperatureF,Dew PointF,Humidity,Sea Level PressureIn,VisibilityMPH,Wind Direction,Wind SpeedMPH,Gust SpeedMPH,PrecipitationIn,Events,Conditions,WindDirDegrees,DateUTC
12:14 AM,64.4,35.6,34,29.90,10.0,ENE,11.5,-,N/A,,Light Drizzle,70,2013-05-17 05:14:00
12:33 AM,64.4,35.6,34,29.89,10.0,ENE,9.2,-,N/A,,Scattered Clouds,60,2013-05-17 05:33:00
12:53 AM,64.4,35.6,34,29.90,10.0,NE,6.9,-,N/A,,Mostly Cloudy,40,2013-05-17 05:53:00
1:14 AM,64.4,37.4,37,29.91,10.0,NE,4.6,-,N/A,Rain,Light Rain,50,2013-05-17 06:14:00
1:33 AM,60.8,42.8,52,29.90,10.0,ENE,6.9,-,N/A,Rain,Light Rain,60,2013-05-17 06:33:00
1:53 AM,60.8,42.8,52,29.90,10.0,ENE,6.9,-,N/A,,Overcast,60,2013-05-17 06:53:00
2:13 AM,59.0,44.6,59,29.90,10.0,NE,6.9,-,N/A,Rain,Rain,50,2013-05-17 07:13:00
2:33 AM,59.0,46.4,63,29.91,10.0,East,3.5,-,N/A,,Light Drizzle,80,2013-05-17 07:33:00
2:53 AM,57.2,48.2,72,29.91,10.0,East,3.5,-,N/A,Rain,Light Rain,100,2013-05-17 07:53:00
3:13 AM,55.4,50.0,82,29.91,10.0,ESE,3.5,-,N/A,Rain,Rain,110,2013-05-17 08:13:00
3:33 AM,55.4,50.0,82,29.91,10.0,SE,5.8,-,N/A,Rain,Light Rain,130,2013-05-17 08:33:00
3:54 AM,57.2,51.8,82,29.92,10.0,East,11.5,-,N/A,,Light Drizzle,100,2013-05-17 08:54:00
4:13 AM,57.2,51.8,82,29.92,10.0,ESE,11.5,18.4,N/A,,Overcast,110,2013-05-17 09:13:00
4:33 AM,57.2,51.8,82,29.93,10.0,ESE,10.4,-,N/A,,Drizzle,110,2013-05-17 09:33:00
4:54 AM,57.2,51.8,82,29.94,10.0,SE,9.2,19.6,N/A,Rain,Rain,140,2013-05-17 09:54:00
5:13 AM,55.4,51.8,88,29.95,7.0,SE,6.9,-,N/A,Rain,Light Rain,140,2013-05-17 10:13:00
5:33 AM,53.6,51.8,94,29.93,4.0,ESE,13.8,19.6,N/A,Rain,Rain,120,2013-05-17 10:33:00
5:54 AM,53.6,51.8,94,29.94,10.0,ESE,15.0,19.6,N/A,,Overcast,110,2013-05-17 10:54:00
6:13 AM,53.6,51.8,94,29.94,10.0,ESE,12.7,18.4,N/A,,Overcast,110,2013-05-17 11:13:00
6:33 AM,53.6,51.8,94,29.95,10.0,ESE,13.8,19.6,N/A,,Overcast,110,2013-05-17 11:33:00
7:13 AM,53.6,50.0,88,29.96,10.0,East,10.4,-,N/A,,Overcast,100,2013-05-17 12:13:00
7:33 AM,53.6,50.0,88,29.96,10.0,East,11.5,-,N/A,,Light Drizzle,90,2013-05-17 12:33:00
7:53 AM,51.8,50.0,94,29.96,10.0,East,12.7,-,N/A,,Overcast,90,2013-05-17 12:53:00
8:14 AM,53.6,50.0,88,29.96,10.0,East,13.8,-,N/A,,Overcast,90,2013-05-17 13:14:00
8:33 AM,51.8,50.0,94,29.97,10.0,East,15.0,18.4,N/A,,Overcast,90,2013-05-17 13:33:00
8:53 AM,53.6,50.0,88,29.96,10.0,East,15.0,-,N/A,,Overcast,100,2013-05-17 13:53:00
9:14 AM,53.6,50.0,88,29.97,10.0,East,13.8,-,N/A,,Overcast,90,2013-05-17 14:14:00
9:33 AM,53.6,51.8,94,29.97,10.0,East,16.1,-,N/A,,Overcast,100,2013-05-17 14:33:00
9:53 AM,53.6,50.0,88,29.99,10.0,East,12.7,-,N/A,,Overcast,100,2013-05-17 14:53:00
10:13 AM,53.6,50.0,88,29.98,10.0,ESE,10.4,-,N/A,,Overcast,110,2013-05-17 15:13:00
10:33 AM,53.6,51.8,94,29.99,10.0,East,12.7,-,N/A,,Overcast,100,2013-05-17 15:33:00
10:53 AM,53.6,51.8,94,29.99,10.0,ESE,11.5,-,N/A,,Overcast,110,2013-05-17 15:53:00
11:13 AM,55.4,51.8,88,29.99,10.0,East,12.7,-,N/A,,Overcast,100,2013-05-17 16:13:00
11:33 AM,55.4,51.8,88,29.99,10.0,East,11.5,-,N/A,,Overcast,100,2013-05-17 16:33:00
11:54 AM,55.4,51.8,88,29.99,10.0,East,10.4,-,N/A,Rain,Light Rain,100,2013-05-17 16:54:00
12:13 PM,53.6,51.8,94,29.99,10.0,East,10.4,-,N/A,,Light Drizzle,100,2013-05-17 17:13:00
12:33 PM,53.6,51.8,94,29.99,5.0,ESE,12.7,-,N/A,Rain,Rain,110,2013-05-17 17:33:00
12:54 PM,53.6,53.6,100,29.99,7.0,East,10.4,-,N/A,Rain,Rain,100,2013-05-17 17:54:00
1:13 PM,53.6,53.6,100,30.00,5.0,ESE,11.5,-,N/A,Rain,Light Rain,110,2013-05-17 18:13:00
1:33 PM,53.6,53.6,100,30.00,4.0,East,15.0,-,N/A,Rain,Light Rain,100,2013-05-17 18:33:00
2:13 PM,53.6,51.8,94,29.99,10.0,East,12.7,17.3,N/A,,Light Drizzle,90,2013-05-17 19:13:00
2:34 PM,51.8,51.8,100,29.99,4.0,East,13.8,-,N/A,Rain,Rain,90,2013-05-17 19:34:00
2:53 PM,51.8,51.8,100,30.00,3.0,East,13.8,-,N/A,Rain,Rain,90,2013-05-17 19:53:00
3:13 PM,51.8,51.8,100,30.00,4.0,East,9.2,-,N/A,Rain,Light Rain,80,2013-05-17 20:13:00
3:34 PM,53.6,51.8,94,29.99,2.5,East,9.2,-,N/A,Rain,Rain,90,2013-05-17 20:34:00
3:53 PM,53.6,53.6,100,29.98,3.0,East,13.8,-,N/A,Rain,Rain,100,2013-05-17 20:53:00
4:13 PM,53.6,53.6,100,29.97,4.0,East,11.5,-,N/A,Rain,Rain,100,2013-05-17 21:13:00
4:34 PM,53.6,53.6,100,29.96,7.0,East,13.8,17.3,N/A,,Overcast,90,2013-05-17 21:34:00
4:53 PM,53.6,53.6,100,29.97,7.0,East,11.5,-,N/A,,Overcast,100,2013-05-17 21:53:00
5:13 PM,53.6,53.6,100,29.97,10.0,East,12.7,-,N/A,,Overcast,90,2013-05-17 22:13:00
5:33 PM,55.4,53.6,94,29.97,10.0,East,11.5,-,N/A,,Overcast,90,2013-05-17 22:33:00
5:53 PM,55.4,53.6,94,29.97,10.0,East,11.5,-,N/A,,Overcast,90,2013-05-17 22:53:00
6:14 PM,55.4,53.6,94,29.96,7.0,East,10.4,-,N/A,,Overcast,90,2013-05-17 23:14:00
6:33 PM,55.4,53.6,94,29.96,10.0,East,11.5,-,N/A,,Overcast,100,2013-05-17 23:33:00
6:53 PM,55.4,53.6,94,29.96,10.0,East,11.5,-,N/A,,Overcast,90,2013-05-17 23:53:00
7:14 PM,55.4,53.6,94,29.95,7.0,East,10.4,-,N/A,,Overcast,90,2013-05-18 00:14:00
7:33 PM,55.4,53.6,94,29.95,7.0,East,11.5,-,N/A,,Overcast,90,2013-05-18 00:33:00
7:53 PM,55.4,53.6,94,29.96,5.0,East,10.4,-,N/A,,Overcast,90,2013-05-18 00:53:00
8:14 PM,55.4,53.6,94,29.95,4.0,East,11.5,-,N/A,,Overcast,100,2013-05-18 01:14:00
8:33 PM,55.4,53.6,94,29.96,5.0,East,11.5,-,N/A,,Overcast,90,2013-05-18 01:33:00
8:53 PM,55.4,53.6,94,29.96,5.0,East,11.5,-,N/A,,Overcast,90,2013-05-18 01:53:00
9:14 PM,55.4,55.4,100,29.96,4.0,East,11.5,-,N/A,,Overcast,100,2013-05-18 02:14:00
9:33 PM,55.4,55.4,100,29.96,4.0,East,11.5,-,N/A,,Overcast,100,2013-05-18 02:33:00
9:53 PM,55.4,55.4,100,29.97,4.0,East,10.4,-,N/A,,Overcast,90,2013-05-18 02:53:00
10:13 PM,55.4,55.4,100,29.98,4.0,East,10.4,-,N/A,,Overcast,100,2013-05-18 03:13:00
10:33 PM,55.4,55.4,100,29.98,4.0,ESE,11.5,-,N/A,,Overcast,110,2013-05-18 03:33:00
10:53 PM,55.4,55.4,100,29.97,4.0,ESE,11.5,-,N/A,,Overcast,110,2013-05-18 03:53:00
11:13 PM,55.4,55.4,100,29.97,4.0,East,10.4,-,N/A,,Overcast,100,2013-05-18 04:13:00
11:33 PM,55.4,55.4,100,29.97,4.0,ESE,9.2,-,N/A,,Mostly Cloudy,110,2013-05-18 04:33:00
11:54 PM,55.4,53.6,94,29.97,4.0,East,9.2,-,N/A,,Scattered Clouds,100,2013-05-18 04:54:00